H1 CPF 2 NER 2025 11 8 9 312 01 glonass142 H2 2001801 9142 45358 2025 11 8 0 0 0 2025 11 11 23 45 0 900 1 1 0 0 0 1 H9 10 0 60987 0.00000 0 -5585054.524 23039095.265 -9360178.462 10 0 60987 900.00000 0 -5444563.906 21706726.921 -12193563.146 10 0 60987 1800.00000 0 -5418855.211 20033490.528 -14789452.809 10 0 60987 2700.00000 0 -5550270.499 18062642.981 -17097253.802 10 0 60987 3600.00000 0 -5872455.593 15846988.410 -19071991.721 10 0 60987 4500.00000 0 -6408728.624 13446819.167 -20675195.780 10 0 60987 5400.00000 0 -7170896.974 10927556.186 -21875653.829 10 0 60987 6300.00000 0 -8158573.810 8357187.880 -22650022.985 10 0 60987 7200.00000 0 -9359023.922 5803615.140 -22983283.894 10 0 60987 8100.00000 0 -10747545.951 3332013.668 -22869029.955 10 0 60987 9000.00000 0 -12288375.275 1002323.881 -22309586.244 10 0 60987 9900.00000 0 -13936069.598 -1133027.060 -21315956.317 10 0 60987 10800.00000 0 -15637318.885 -3031076.674 -19907598.535 10 0 60987 11700.00000 0 -17333103.374 -4659871.677 -18112036.871 10 0 60987 12600.00000 0 -18961108.664 -5999542.564 -15964314.465 10 0 60987 13500.00000 0 -20458296.208 -7042865.248 -13506301.206 10 0 60987 14400.00000 0 -21763521.034 -7795288.443 -10785869.460 10 0 60987 15300.00000 0 -22820086.698 -8274428.006 -7855954.641 10 0 60987 16200.00000 0 -23578130.259 -8509051.900 -4773519.505 10 0 60987 17100.00000 0 -23996737.457 -8537600.714 -1598442.824 10 0 60987 18000.00000 0 -24045699.717 -8406308.089 1607645.470 10 0 60987 18900.00000 0 -23706839.923 -8167001.900 4782559.737 10 0 60987 19800.00000 0 -22974852.032 -7874680.140 7864761.405 10 0 60987 20700.00000 0 -21857620.091 -7584964.500 10794545.797 10 0 60987 21600.00000 0 -20376003.927 -7351539.346 13515190.420 10 0 60987 22500.00000 0 -18563100.903 -7223683.953 15974043.165 10 0 60987 23400.00000 0 -16463014.737 -7244001.606 18123530.217 10 0 60987 24300.00000 0 -14129182.524 -7446440.640 19922065.283 10 0 60987 25200.00000 0 -11622329.025 -7854690.151 21334843.757 10 0 60987 26100.00000 0 -9008132.329 -8481017.451 22334507.609 10 0 60987 27000.00000 0 -6354696.572 -9325596.060 22901669.170 10 0 60987 27900.00000 0 -3729935.006 -10376352.824 23025284.475 10 0 60987 28800.00000 0 -1198970.366 -11609341.435 22702869.304 10 0 60987 29700.00000 0 1178341.349 -12989628.021 21940553.759 10 0 60987 30600.00000 0 3349662.442 -14472653.389 20752973.807 10 0 60987 31500.00000 0 5272108.219 -16006016.776 19163001.042 10 0 60987 32400.00000 0 6913785.335 -17531608.314 17201314.650 10 0 60987 33300.00000 0 8254870.353 -18988002.632 14905822.442 10 0 60987 34200.00000 0 9288183.774 -20313014.648 12320940.641 10 0 60987 35100.00000 0 10019235.550 -21446311.246 9496745.017 10 0 60987 36000.00000 0 10465740.028 -22331969.499 6488008.548 10 0 60987 36900.00000 0 10656620.483 -22920873.619 3353143.528 10 0 60987 37800.00000 0 10630545.009 -23172848.973 153068.162 10 0 60987 38700.00000 0 10434055.574 -23058441.991 -3049980.277 10 0 60987 39600.00000 0 10119369.564 -22560269.379 -6193662.219 10 0 60987 40500.00000 0 9741947.448 -21673877.984 -9216757.978 10 0 60987 41400.00000 0 9357930.426 -20408077.318 -12060370.560 10 0 60987 42300.00000 0 9021557.783 -18784729.165 -14669084.393 10 0 60987 43200.00000 0 8782674.707 -16838001.779 -16992056.248 10 0 60987 44100.00000 0 8684437.522 -14613119.120 -18984016.006 10 0 60987 45000.00000 0 8761314.897 -12164657.064 -20606156.842 10 0 60987 45900.00000 0 9037470.812 -9554457.827 -21826896.888 10 0 60987 46800.00000 0 9525598.662 -6849249.965 -22622497.182 10 0 60987 47700.00000 0 10226256.501 -4118073.702 -22977523.753 10 0 60987 48600.00000 0 11127731.921 -1429619.367 -22885145.080 10 0 60987 49500.00000 0 12206442.453 1150409.878 -22347259.411 10 0 60987 50400.00000 0 13427854.515 3561801.098 -21374450.017 10 0 60987 51300.00000 0 14747881.935 5752096.498 -19985769.792 10 0 60987 52200.00000 0 16114704.769 7678526.551 -18208360.024 10 0 60987 53100.00000 0 17470931.355 9309531.898 -16076911.429 10 0 60987 54000.00000 0 18756012.133 10625812.106 -13632978.565 10 0 60987 54900.00000 0 19908803.243 11620859.436 -10924161.632 10 0 60987 55800.00000 0 20870171.724 12300957.509 -8003172.230 10 0 60987 56700.00000 0 21585532.535 12684647.304 -4926801.868 10 0 60987 57600.00000 0 22007210.739 12801685.283 -1754813.804 10 0 60987 58500.00000 0 22096529.709 12691539.647 1451219.741 10 0 60987 59400.00000 0 21825537.966 12401489.910 4629112.102 10 0 60987 60300.00000 0 21178302.617 11984411.352 7717265.131 10 0 60987 61200.00000 0 20151715.618 11496338.724 10655857.351 10 0 60987 62100.00000 0 18755779.560 10993912.405 13387994.635 10 0 60987 63000.00000 0 17013361.287 10531814.697 15860801.829 10 0 60987 63900.00000 0 14959423.746 10160303.870 18026435.014 10 0 60987 64800.00000 0 12639767.821 9922949.167 19842995.941 10 0 60987 65700.00000 0 10109335.946 9854661.299 21275332.139 10 0 60987 66600.00000 0 7430147.047 9980100.495 22295708.389 10 0 60987 67500.00000 0 4668947.253 10312528.511 22884337.616 10 0 60987 68400.00000 0 1894672.210 10853152.607 23029761.729 10 0 60987 69300.00000 0 -824175.495 11590989.321 22729075.464 10 0 60987 70200.00000 0 -3422126.897 12503254.498 21987988.899 10 0 60987 71100.00000 0 -5839219.095 13556264.440 20820726.991 10 0 60987 72000.00000 0 -8023238.378 14706811.877 19249767.205 10 0 60987 72900.00000 0 -9931642.059 15903960.763 17305419.113 10 0 60987 73800.00000 0 -11533079.810 17091186.269 15025252.646 10 0 60987 74700.00000 0 -12808451.492 18208771.552 12453384.583 10 0 60987 75600.00000 0 -13751457.376 19196361.670 9639635.653 10 0 60987 76500.00000 0 -14368617.571 19995567.793 6638573.378 10 0 60987 77400.00000 0 -14678759.565 20552512.025 3508458.360 10 0 60987 78300.00000 0 -14711995.164 20820204.992 310114.032 10 0 60987 79200.00000 0 -14508229.796 20760654.818 -2894258.172 10 0 60987 80100.00000 0 -14115267.192 20346616.937 -6042294.754 10 0 60987 81000.00000 0 -13586589.887 19562909.095 -9072692.696 10 0 60987 81900.00000 0 -12978910.157 18407234.145 -11926413.814 10 0 60987 82800.00000 0 -12349595.932 16890474.089 -14547846.213 10 0 60987 83700.00000 0 -11754081.858 15036441.320 -16885899.032 10 0 60987 84600.00000 0 -11243376.297 12881096.174 -18895008.083 10 0 60987 85500.00000 0 -10861771.010 10471262.696 -20536031.841 10 0 60988 0.00000 0 -10644851.480 7862896.113 -21777019.641 10 0 60988 900.00000 0 -10617892.783 5118972.850 -22593837.323 10 0 60988 1800.00000 0 -10794709.614 2307094.839 -22970636.507 10 0 60988 2700.00000 0 -11177008.891 -503096.350 -22900160.695 10 0 60988 3600.00000 0 -11754272.601 -3242584.152 -22383880.871 10 0 60988 4500.00000 0 -12504175.340 -5845610.640 -21431959.165 10 0 60988 5400.00000 0 -13393518.481 -8252169.427 -20063041.737 10 0 60988 6300.00000 0 -14379640.932 -10410254.472 -18303885.534 10 0 60988 7200.00000 0 -15412246.261 -12277771.935 -16188826.830 10 0 60988 8100.00000 0 -16435568.443 -13824036.636 -13759102.560 10 0 60988 9000.00000 0 -17390784.277 -15030792.287 -11062038.267 10 0 60988 9900.00000 0 -18218570.181 -15892714.813 -8150119.129 10 0 60988 10800.00000 0 -18861695.240 -16417379.904 -5079962.757 10 0 60988 11700.00000 0 -19267541.003 -16624698.441 -1911214.249 10 0 60988 12600.00000 0 -19390441.835 -16545845.733 1294614.496 10 0 60988 13500.00000 0 -19193747.485 -16221731.608 4475338.345 10 0 60988 14400.00000 0 -18651521.330 -15701077.425 7569302.086 10 0 60988 15300.00000 0 -17749803.332 -15038182.197 10516569.872 10 0 60988 16200.00000 0 -16487384.992 -14290472.668 13260078.288 10 0 60988 17100.00000 0 -14876064.048 -13515940.692 15746731.330 10 0 60988 18000.00000 0 -12940368.267 -12770575.584 17928416.985 10 0 60988 18900.00000 0 -10716759.574 -12105898.815 19762926.805 10 0 60988 19800.00000 0 -8252350.998 -11566703.820 21214761.917 10 0 60988 20700.00000 0 -5603188.873 -11189094.923 22255811.031 10 0 60988 21600.00000 0 -2832170.241 -10998906.821 22865888.420 10 0 60988 22500.00000 0 -6680.245 -11010570.291 23033122.252 10 0 60988 23400.00000 0 2803954.363 -11226471.447 22754186.234 10 0 60988 24300.00000 0 5531091.955 -11636831.534 22034370.092 10 0 60988 25200.00000 0 8109375.978 -12220112.961 20887487.099 10 0 60988 26100.00000 0 10479201.873 -12943935.545 19335619.593 10 0 60988 27000.00000 0 12588949.851 -13766465.809 17408706.210 10 0 60988 27900.00000 0 14396891.650 -14638222.449 15143977.349 10 0 60988 28800.00000 0 15872692.296 -15504223.424 12585248.349 10 0 60988 29700.00000 0 16998444.386 -16306385.467 9782082.581 10 0 60988 30600.00000 0 17769191.424 -16986075.675 6788839.462 10 0 60988 31500.00000 0 18192917.941 -17486707.808 3663624.994 10 0 60988 32400.00000 0 18290006.382 -17756273.377 467164.738 10 0 60988 33300.00000 0 18092183.293 -17749699.735 -2738378.914 10 0 60988 34200.00000 0 17640999.075 -17430934.162 -5890621.729 10 0 60988 35100.00000 0 16985905.580 -16774664.118 -8928180.446 10 0 60988 36000.00000 0 16182013.210 -15767599.069 -11791878.617 10 0 60988 36900.00000 0 15287623.033 -14409257.719 -14425910.707 10 0 60988 37800.00000 0 14361639.218 -12712225.578 -16778940.637 10 0 60988 38700.00000 0 13460972.292 -10701870.310 -18805112.251 10 0 60988 39600.00000 0 12638044.060 -8415525.483 -20464951.074 10 0 60988 40500.00000 0 11938500.650 -5901176.023 -21726139.181 10 0 60988 41400.00000 0 11399231.009 -3215699.789 -22564147.718 10 0 60988 42300.00000 0 11046775.016 -422738.581 -22962714.626 10 0 60988 43200.00000 0 10896188.510 2409712.571 -22914158.460 10 0 60988 44100.00000 0 10950412.923 5211897.215 -22419522.516 10 0 60988 45000.00000 0 11200175.573 7914962.261 -21488546.923 10 0 60988 45900.00000 0 11624424.076 10453584.769 -20139469.851 10 0 60988 46800.00000 0 12191275.575 12768451.603 -18398662.274 10 0 60988 47700.00000 0 12859439.741 14808489.174 -16300104.068 10 0 60988 48600.00000 0 13580054.392 16532751.240 -13884712.265 10 0 60988 49500.00000 0 14298855.333 17911887.271 -11199535.194 10 0 60988 50400.00000 0 14958587.917 18929131.641 -8296828.810 10 0 60988 51300.00000 0 15501557.886 19580774.214 -5233033.832 10 0 60988 52200.00000 0 15872213.317 19876094.659 -2067674.083 10 0 60988 53100.00000 0 16019648.502 19836765.407 1137802.012 10 0 60988 54000.00000 0 15899924.105 19495750.353 4321213.937 10 0 60988 54900.00000 0 15478105.933 18895747.354 7420852.346 10 0 60988 55800.00000 0 14729936.745 18087241.442 10376669.733 10 0 60988 56700.00000 0 13643071.035 17126251.591 13131435.818 10 0 60988 57600.00000 0 12217821.115 16071866.217 15631835.885 10 0 60988 58500.00000 0 10467383.235 14983670.963 17829491.656 10 0 60988 59400.00000 0 8417533.965 13919176.330 19681886.017 10 0 60988 60300.00000 0 6105808.875 12931352.274 21153174.942 10 0 60988 61200.00000 0 3580196.748 12066372.140 22214872.029 10 0 60988 62100.00000 0 897402.240 11361659.389 22846393.540 10 0 60988 63000.00000 0 -1879252.536 10844317.947 23035454.209 10 0 60988 63900.00000 0 -4682202.320 10530011.191 22778306.629 10 0 60988 64800.00000 0 -7442192.472 10422336.098 22079819.658 10 0 60988 65700.00000 0 -10090908.283 10512718.865 20953393.909 10 0 60988 66600.00000 0 -12563572.516 10780836.795 19420715.136 10 0 60988 67500.00000 0 -14801404.831 11195549.590 17511349.111 10 0 60988 68400.00000 0 -16753841.945 11716302.009 15262184.370 10 0 60988 69300.00000 0 -18380426.680 12294940.034 12716732.142 10 0 60988 70200.00000 0 -19652287.316 12877865.175 9924295.536 10 0 60988 71100.00000 0 -20553145.236 13408436.863 6939022.836 10 0 60988 72000.00000 0 -21079808.189 13829521.925 3818862.387 10 0 60988 72900.00000 0 -21242127.886 14086083.324 624438.866 10 0 60988 73800.00000 0 -21062423.149 14127698.046 -2582127.300 10 0 60988 74700.00000 0 -20574392.448 13910896.451 -5738433.936 10 0 60988 75600.00000 0 -19821561.497 13401222.541 -8783020.191 10 0 60988 76500.00000 0 -18855331.552 12574926.095 -11656573.816 10 0 60988 77400.00000 0 -17732711.235 11420213.122 -14303097.900 10 0 60988 78300.00000 0 -16513828.408 9937999.780 -16671013.150 10 0 60988 79200.00000 0 -15259328.049 8142136.077 -18714173.139 10 0 60988 80100.00000 0 -14027766.963 6059088.300 -20392771.802 10 0 60988 81000.00000 0 -12873116.174 3727092.223 -21674124.862 10 0 60988 81900.00000 0 -11842477.041 1194811.635 -22533309.595 10 0 60988 82800.00000 0 -10974107.857 -1480442.181 -22953650.360 10 0 60988 83700.00000 0 -10295844.160 -4234855.885 -22927040.595 10 0 60988 84600.00000 0 -9823979.008 -7000534.962 -22454095.335 10 0 60988 85500.00000 0 -9562649.749 -9708098.984 -21544131.763 10 0 60989 0.00000 0 -9503756.136 -12289342.864 -20214978.867 10 0 60989 900.00000 0 -9627412.011 -14679854.621 -18492619.742 10 0 60989 1800.00000 0 -9902910.188 -16821477.437 -16410675.991 10 0 60989 2700.00000 0 -10290158.317 -18664518.514 -14009742.547 10 0 60989 3600.00000 0 -10741523.885 -20169610.001 -11336588.154 10 0 60989 4500.00000 0 -11204009.128 -21309146.890 -8443237.099 10 0 60989 5400.00000 0 -11621662.982 -22068243.064 -5385950.728 10 0 60989 6300.00000 0 -11938127.377 -22445167.266 -2224129.141 10 0 60989 7200.00000 0 -12099209.758 -22451242.593 980845.109 10 0 60989 8100.00000 0 -12055372.936 -22110215.664 4166798.481 10 0 60989 9000.00000 0 -11764037.136 -21457123.690 7271969.798 10 0 60989 9900.00000 0 -11191597.284 -20536708.537 10236202.147 10 0 60989 10800.00000 0 -10315070.759 -19401445.484 13002100.579 10 0 60989 11700.00000 0 -9123306.512 -18109270.096 15516133.763 10 0 60989 12600.00000 0 -7617704.797 -16721098.773 17729659.119 10 0 60989 13500.00000 0 -5812417.152 -15298246.606 19599852.660 10 0 60989 14400.00000 0 -3734017.716 -13899850.011 21090526.756 10 0 60989 15300.00000 0 -1420658.690 -12580400.999 22172821.178 10 0 60989 16200.00000 0 1079256.214 -11387495.024 22825755.169 10 0 60989 17100.00000 0 3708826.793 -10359885.343 23036630.706 10 0 60989 18000.00000 0 6404768.879 -9525924.139 22801279.626 10 0 60989 18900.00000 0 9099798.736 -8902454.737 22124149.966 10 0 60989 19800.00000 0 11725192.475 -8494200.770 21018229.400 10 0 60989 20700.00000 0 14213416.167 -8293677.802 19504806.510 10 0 60989 21600.00000 0 16500719.053 -8281631.417 17613073.278 10 0 60989 22500.00000 0 18529583.288 -8427984.002 15379575.109 10 0 60989 23400.00000 0 20250928.936 -8693251.298 12847517.480 10 0 60989 24300.00000 0 21625982.546 -9030369.913 10065941.213 10 0 60989 25200.00000 0 22627731.058 -9386859.512 7088781.052 10 0 60989 26100.00000 0 23241899.629 -9707228.857 3973824.923 10 0 60989 27000.00000 0 23467411.634 -9935524.027 781593.553 10 0 60989 27900.00000 0 23316310.706 -10017910.572 -2425837.845 10 0 60989 28800.00000 0 22813147.352 -9905179.366 -5586052.503 10 0 60989 29700.00000 0 21993855.472 -9555068.657 -8637515.284 10 0 60989 30600.00000 0 20904165.887 -8934302.251 -11520781.305 10 0 60989 31500.00000 0 19597623.913 -8020255.637 -14179665.209 10 0 60989 32400.00000 0 18133294.989 -6802177.529 -16562347.137 10 0 60989 33300.00000 0 16573255.786 -5281913.257 -18622392.727 10 0 60989 34200.00000 0 14979977.383 -3474097.715 -20319666.317 10 0 60989 35100.00000 0 13413711.567 -1405808.160 -21621118.915 10 0 60989 36000.00000 0 11929991.014 884309.706 -22501435.198 10 0 60989 36900.00000 0 10577349.029 3347406.602 -22943526.811 10 0 60989 37800.00000 0 9395354.853 5926228.825 -22938862.523 10 0 60989 38700.00000 0 8413046.898 8557276.751 -22487629.131 10 0 60989 39600.00000 0 7647829.093 11173232.564 -21598720.448 10 0 60989 40500.00000 0 7104875.682 13705555.862 -20289555.154 10 0 60989 41400.00000 0 6777068.128 16087138.874 -18585727.658 10 0 60989 42300.00000 0 6645465.162 18254910.575 -16520499.401 10 0 60989 43200.00000 0 6680284.437 20152281.348 -14134141.128 10 0 60989 44100.00000 0 6842352.642 21731326.707 -11473139.554 10 0 60989 45000.00000 0 7084961.262 22954619.644 -8589284.508 10 0 60989 45900.00000 0 7356048.157 23796636.152 -5538654.923 10 0 60989 46800.00000 0 7600611.623 24244676.499 -2380523.922 10 0 60989 47700.00000 0 7763254.014 24299265.233 823795.174 10 0 60989 48600.00000 0 7790746.910 23974014.850 4012139.153 10 0 60989 49500.00000 0 7634509.161 23294960.469 7122698.263 10 0 60989 50400.00000 0 7252893.219 22299394.871 10095209.250 10 0 60989 51300.00000 0 6613183.432 21034253.957 12872115.297 10 0 60989 52200.00000 0 5693222.358 19554121.058 15399670.957 10 0 60989 53100.00000 0 4482596.805 17918934.053 17628971.532 10 0 60989 54000.00000 0 2983333.757 16191491.126 19516888.003 10 0 60989 54900.00000 0 1210076.637 14434858.853 21026890.659 10 0 60989 55800.00000 0 -810266.201 12709789.996 22129746.638 10 0 60989 56700.00000 0 -3039387.208 11072257.570 22804079.006 10 0 60989 57600.00000 0 -5428925.113 9571206.712 23036777.449 10 0 60989 58500.00000 0 -7922235.949 8246616.849 22823253.115 10 0 60989 59400.00000 0 -10456518.101 7127953.824 22167532.823 10 0 60989 60300.00000 0 -12965205.216 6233075.701 21082190.441 10 0 60989 61200.00000 0 -15380529.557 5567637.452 19588115.990 10 0 60989 62100.00000 0 -17636151.057 5125019.237 17714125.788 10 0 60989 63000.00000 0 -19669744.094 4886781.511 15496419.757 10 0 60989 63900.00000 0 -21425435.137 4823628.277 12977894.884 10 0 60989 64800.00000 0 -22855989.965 4896838.616 10207326.659 10 0 60989 65700.00000 0 -23924658.954 5060106.762 7238433.049 10 0 60989 66600.00000 0 -24606602.614 5261713.521 4128838.239 10 0 60989 67500.00000 0 -24889836.729 5446937.393 938955.707 10 0 60989 68400.00000 0 -24775656.402 5560603.120 -2269187.767 10 0 60989 69300.00000 0 -24278520.091 5549658.999 -5433163.899 10 0 60989 70200.00000 0 -23425397.671 5365672.620 -8491366.169 10 0 60989 71100.00000 0 -22254609.329 4967137.743 -11384219.760 10 0 60989 72000.00000 0 -20814203.955 4321492.770 -14055353.337 10 0 60989 72900.00000 0 -19159945.400 3406763.442 -16452708.656 10 0 60989 73800.00000 0 -17352991.804 2212758.292 -18529565.259 10 0 60989 74700.00000 0 -15457366.295 741764.552 -20245459.334 10 0 60989 75600.00000 0 -13537326.143 -991286.496 -21566978.172 10 0 60989 76500.00000 0 -11654741.611 -2959193.036 -22468414.376 10 0 60989 77400.00000 0 -9866595.117 -5123380.439 -22932266.929 10 0 60989 78300.00000 0 -8222705.855 -7435286.211 -22949579.512 10 0 60989 79200.00000 0 -6763775.187 -9838174.595 -22520109.832 10 0 60989 80100.00000 0 -5519834.219 -12269305.030 -21652327.076 10 0 60989 81000.00000 0 -4509157.663 -14662363.810 -20363238.145 10 0 60989 81900.00000 0 -3737688.160 -16950057.319 -18678046.616 10 0 60989 82800.00000 0 -3198993.528 -19066758.417 -16629651.711 10 0 60989 83700.00000 0 -2874756.789 -20951095.492 -14257997.659 10 0 60989 84600.00000 0 -2735776.312 -22548376.260 -11609286.701 10 0 60989 85500.00000 0 -2743431.932 -23812745.409 -8735071.730 10 0 60990 0.00000 0 -2851553.364 -24708986.529 -5691247.068 10 0 60990 900.00000 0 -3008610.502 -25213894.309 -2536955.900 10 0 60990 1800.00000 0 -3160131.626 -25317159.612 666559.751 10 0 60990 2700.00000 0 -3251246.660 -25021733.302 3857149.249 10 0 60990 3600.00000 0 -3229247.302 -24343653.704 6972956.426 10 0 60990 4500.00000 0 -3046055.725 -23311346.773 9953613.766 10 0 60990 5400.00000 0 -2660497.673 -21964429.341 12741404.576 10 0 60990 6300.00000 0 -2040284.310 -20352066.353 15282371.185 10 0 60990 7200.00000 0 -1163619.571 -18530951.260 17527348.527 10 0 60990 8100.00000 0 -20365.566 -16562993.943 19432904.144 10 0 60990 9000.00000 0 1387283.014 -14512812.244 20962167.624 10 0 60990 9900.00000 0 3044644.205 -12445130.871 22085534.610 10 0 60990 10800.00000 0 4924921.124 -10422194.868 22781232.875 10 0 60990 11700.00000 0 6990087.146 -8501303.965 23035740.424 10 0 60990 12600.00000 0 9192248.652 -6732569.007 22844048.055 10 0 60990 13500.00000 0 11475430.537 -5156982.489 22209761.442 10 0 60990 14400.00000 0 13777712.314 -3804882.339 21145040.448 10 0 60990 15300.00000 0 16033627.962 -2694872.148 19670376.080 10 0 60990 16200.00000 0 18176731.565 -1833242.354 17814208.262 10 0 60990 17100.00000 0 20142223.444 -1213916.401 15612390.412 10 0 60990 18000.00000 0 21869528.361 -818924.250 13107509.690 10 0 60990 18900.00000 0 23304718.736 -619383.692 10348074.579 10 0 60990 19800.00000 0 24402681.539 -576948.592 7387584.243 10 0 60990 20700.00000 0 25128937.612 -645663.394 4283496.751 10 0 60990 21600.00000 0 25461036.174 -774145.706 1096115.645 10 0 60990 22500.00000 0 25389464.801 -908004.550 -2112583.659 10 0 60990 23400.00000 0 24918035.267 -992391.329 -5280164.435 10 0 60990 24300.00000 0 24063727.842 -974574.500 -8344951.901 10 0 60990 25200.00000 0 22855999.547 -806427.512 -11247244.346 10 0 60990 26100.00000 0 21335584.799 -446722.955 -13930487.333 10 0 60990 27000.00000 0 19552838.600 136866.057 -16342386.881 10 0 60990 27900.00000 0 17565691.956 966143.872 -18435938.825 10 0 60990 28800.00000 0 15437305.857 2051219.998 -20170353.317 10 0 60990 29700.00000 0 13233522.831 3389837.706 -21511855.781 10 0 60990 30600.00000 0 11020223.617 4967233.210 -22434348.311 10 0 60990 31500.00000 0 8860700.297 6756532.465 -22919918.499 10 0 60990 32400.00000 0 6813156.241 8719669.694 -22959185.895 10 0 60990 33300.00000 0 4928437.508 10808789.566 -22551479.698 10 0 60990 34200.00000 0 3248090.265 12968074.471 -21704844.652 10 0 60990 35100.00000 0 1802824.672 15135920.335 -20435875.619 10 0 60990 36000.00000 0 611448.243 17247369.837 -18769384.628 10 0 60990 36900.00000 0 -319688.263 19236700.999 -16737907.498 10 0 60990 37800.00000 0 -996711.193 21040062.725 -14381060.289 10 0 60990 38700.00000 0 -1437711.914 22598047.028 -11744758.685 10 0 60990 39600.00000 0 -1671726.040 23858090.367 -8880316.156 10 0 60990 40500.00000 0 -1737249.134 24776603.983 -5843439.021 10 0 60990 41400.00000 0 -1680353.415 25320744.575 -2693138.516 10 0 60990 42300.00000 0 -1552486.597 25469751.966 509418.468 10 0 60990 43200.00000 0 -1408047.097 25215798.688 3702097.262 10 0 60990 44100.00000 0 -1301838.913 24564317.013 6822998.679 10 0 60990 45000.00000 0 -1286514.134 23533790.793 9811654.236 10 0 60990 45900.00000 0 -1410111.223 22155021.839 12610190.486 10 0 60990 46800.00000 0 -1713792.741 20469902.257 15164440.430 10 0 60990 47700.00000 0 -2229877.605 18529744.505 17424981.258 10 0 60990 48600.00000 0 -2980250.387 16393238.925 19348079.398 10 0 60990 49500.00000 0 -3975214.392 14124123.502 20896525.757 10 0 60990 50400.00000 0 -5212836.717 11788662.160 22040346.161 10 0 60990 51300.00000 0 -6678813.289 9453035.345 22757374.421 10 0 60990 52200.00000 0 -8346860.414 7180749.964 23033677.799 10 0 60990 53100.00000 0 -10179617.857 5030174.835 22863827.240 10 0 60990 54000.00000 0 -12130027.467 3052302.477 22251007.300 10 0 60990 54900.00000 0 -14143131.834 1288828.919 21206963.345 10 0 60990 55800.00000 0 -16158220.011 -229369.751 19751786.326 10 0 60990 56700.00000 0 -18111232.825 -1483301.452 17913538.178 10 0 60990 57600.00000 0 -19937329.123 -2466418.906 15727723.698 10 0 60990 58500.00000 0 -21573507.095 -3184653.848 13236617.618 10 0 60990 59400.00000 0 -22961171.861 -3655923.138 10488458.423 10 0 60990 60300.00000 0 -24048542.051 -3909127.266 7536523.177 10 0 60990 61200.00000 0 -24792794.118 -3982683.096 4438100.358 10 0 60990 62100.00000 0 -25161853.497 -3922652.588 1253380.008 10 0 60990 63000.00000 0 -25135756.115 -3780546.586 -1955717.372 10 0 60990 63900.00000 0 -24707521.478 -3610896.985 -5126750.085 10 0 60990 64800.00000 0 -23883499.099 -3468700.822 -8197978.409 10 0 60990 65700.00000 0 -22683172.284 -3406845.708 -11109576.879 10 0 60990 66600.00000 0 -21138426.384 -3473627.114 -13804810.854 10 0 60990 67500.00000 0 -19292311.564 -3710464.330 -16231153.214 10 0 60990 68400.00000 0 -17197351.647 -4149913.530 -18341318.313 10 0 60990 69300.00000 0 -14913470.104 -4814063.710 -20094192.051 10 0 60990 70200.00000 0 -12505620.421 -5713384.861 -21455639.247 10 0 60990 71100.00000 0 -10041220.583 -6846078.325 -22399172.204 10 0 60990 72000.00000 0 -7587499.558 -8197957.818 -22906467.254 10 0 60990 72900.00000 0 -5208867.095 -9742866.885 -22967719.386 10 0 60990 73800.00000 0 -2964416.896 -11443615.698 -22581828.347 10 0 60990 74700.00000 0 -905667.241 -13253398.085 -21756413.046 10 0 60990 75600.00000 0 925367.152 -15117629.232 -20507654.532 10 0 60990 76500.00000 0 2497692.577 -16976126.883 -18859971.193 10 0 60990 77400.00000 0 3792381.086 -18765544.235 -16845533.112 10 0 60990 78300.00000 0 4803100.721 -20421952.297 -14503625.667 10 0 60990 79200.00000 0 5536111.131 -21883463.259 -11879875.342 10 0 60990 80100.00000 0 6009727.081 -23092784.726 -9025353.467 10 0 60990 81000.00000 0 6253274.734 -23999597.833 -5995575.901 10 0 60990 81900.00000 0 6305586.869 -24562659.760 -2849418.670 10 0 60990 82800.00000 0 6213102.390 -24751542.939 352028.843 10 0 60990 83700.00000 0 6027651.965 -24547938.671 3546650.481 10 0 60990 84600.00000 0 5804024.425 -23946471.298 6672506.444 10 0 60990 85500.00000 0 5597417.464 -22954989.613 9669029.535 99